Location: Freistadt
(48.5112°N, 14.5013°E)
Time: 20:39:58
(UTC+02:00)

O/OREOS (USA 219) - Pass Details

Date: 08 April 2023
Orbit: 621 x 646 km, 72.0° (Epoch: 22 May)

Event Time Altitude Azimuth Distance (km) Brightness Sun altitude
Exits shadow 05:10:00 19° 248° (WSW) 1,509 ? -12.8°
Maximum altitude 05:12:41 36° 305° (NW) 1,007 ? -12.4°
Drops below altitude 10° 05:16:54 10° 13° (NNE) 2,026 ? -11.8°
Sets 05:19:19 0° 22° (NNE) 2,934 ? -11.4°
